Location: Alma
(38.7220°N, 88.9090°W)
Time: 12:02:09
(UTC-06:00)

Vanguard 2 Rocket - Pass Details

Date: 17 November 2019
Orbit: 554 x 3326 km, 32.9° (Epoch: 14 December)

Event Time Altitude Azimuth Distance (km) Brightness Sun altitude
Rises 23:32:46 0° 204° (SSW) 2,727 - -70.4°
Reaches altitude 10° 23:36:38 10° 164° (SSE) 1,839 - -70.4°
Maximum altitude 23:37:40 11° 149° (SSE) 1,817 - -70.4°
Drops below altitude 10° 23:38:45 10° 133° (SE) 1,915 - -70.4°
Sets 23:43:09 0° 96° (E) 3,133 - -70.4°
